Location: Sawmill Trailhead
(33.5800°N, 116.4497°W)
Time: 04:21:32
(UTC-07:00)

Uosat F - Visible Passes

Search period start: 31 July 2015 00:00
Search period end: 10 August 2015 00:00
Orbit: 751 x 761 km, 98.7° (Epoch: 30 July)

Date Brightness Start Highest point End Pass type
(mag) Time Alt. Az. Time Alt. Az. Time Alt. Az.
01 Aug 12.9 05:13:36 10° NE 05:18:01 32° E 05:22:29 10° SSE visible
02 Aug 14.0 04:36:34 10° ENE 04:38:16 12° E 04:40:18 10° ESE visible
04 Aug 13.7 04:55:05 10° NE 04:58:37 20° E 05:02:19 10° SE visible
06 Aug 12.9 05:14:27 10° NE 05:18:53 32° E 05:23:21 10° SSE visible
07 Aug 14.0 04:37:25 10° ENE 04:39:08 12° E 04:41:11 10° ESE visible
08 Aug 12.0 05:34:12 10° NNE 05:39:04 52° E 05:43:56 10° S visible
09 Aug 13.7 04:55:56 10° NE 04:59:29 20° E 05:03:11 10° SE visible
